EW3027 Weather Reports


Display with metric or nautical units.
time (UTC)temp
F
wind
direction
speed
MPH
gust
MPH
rain 1hr
in
rain 24hr
in
rain mn
in
humidity
%
barometer
mb
20260510001317 75 0.0 0.0 0.00 0.00 0.00 40 1014.5
20260510000337 75 0.0 0.0 0.00 0.00 0.00 41 1014.4
20260509235317 75 0.0 0.0 0.00 0.00 0.00 44 1014.5
20260509234317 75 0.0 0.0 0.00 0.00 0.00 45 1014.6
20260509233317 75 0.0 0.0 0.00 0.00 0.00 47 1014.7
20260509232317 74 0.0 0.0 0.00 0.00 0.00 48 1014.7
20260509231317 74 0.0 0.0 0.00 0.00 0.00 51 1014.9
20260509230317 74 0.0 0.0 0.00 0.00 0.00 48 1015.1
20260509225317 74 0.0 0.0 0.00 0.00 0.00 51 1015.1
20260509224317 74 0.0 0.0 0.00 0.00 0.00 51 1015.3
20260509223317 73 0.0 0.0 0.00 0.00 0.00 52 1015.3
20260509222337 73 0.0 0.0 0.00 0.00 0.00 54 1015.4
20260509221337 73 0.0 0.0 0.00 0.00 0.00 53 1015.7
20260509220317 73 0.0 0.0 0.00 0.00 0.00 55 1015.8
20260509215317 73 0.0 0.0 0.00 0.00 0.00 56 1016.1
20260509214317 72 0.0 0.0 0.00 0.00 0.00 57 1016.1
20260509213317 72 0.0 0.0 0.00 0.00 0.00 56 1016.3
20260509212317 71 0.0 0.0 0.00 0.00 0.00 56 1016.3
20260509211317 71 0.0 0.0 0.00 0.00 0.00 58 1016.2
20260509210417 70 0.0 0.0 0.00 0.00 0.00 60 1016.4
20260509205317 70 0.0 0.0 0.00 0.00 0.00 58 1016.5
20260509204317 69 0.0 0.0 0.00 0.00 0.00 61 1016.6
20260509203317 69 0.0 0.0 0.00 0.00 0.00 60 1016.8
20260509202317 68 0.0 0.0 0.00 0.00 0.00 62 1016.8
20260509201317 68 0.0 0.0 0.00 0.00 0.00 62 1017.0
20260509200317 68 0.0 0.0 0.00 0.00 0.00 63 1017.2
20260509195317 68 0.0 0.0 0.00 0.00 0.00 65 1017.2
20260509194317 67 0.0 0.0 0.00 0.00 0.00 64 1017.2
20260509193317 67 0.0 0.0 0.00 0.00 0.00 66 1017.4
20260509192316 66 0.0 0.0 0.00 0.00 0.00 68 1017.5
20260509191317 65 0.0 0.0 0.00 0.00 0.00 67 1017.7
20260509190317 65 0.0 0.0 0.00 0.00 0.00 68 1017.7
20260509185316 64 0.0 0.0 0.00 0.00 0.00 70 1017.9
20260509184337 63 0.0 0.0 0.00 0.00 0.00 70 1018.0
20260509183318 62 0.0 0.0 0.00 0.00 0.00 72 1018.1
20260509182337 61 0.0 0.0 0.00 0.00 0.00 74 1018.1
20260509181317 60 0.0 0.0 0.00 0.00 0.00 74 1018.2
20260509180316 60 0.0 0.0 0.00 0.00 0.00 75 1018.3
20260509175317 59 0.0 0.0 0.00 0.00 0.00 74 1018.3
20260509174316 59 0.0 0.0 0.00 0.00 0.00 76 1018.2
20260509173317 58 0.0 0.0 0.00 0.00 0.00 76 1018.3
20260509172316 57 0.0 0.0 0.00 0.00 0.00 78 1018.5
20260509171316 57 0.0 0.0 0.00 0.00 0.00 77 1018.6
20260509170337 57 0.0 0.0 0.00 0.00 0.00 79 1018.7
20260509165317 56 0.0 0.0 0.00 0.00 0.00 80 1018.7
20260509164316 56 23 1.0 2.0 0.00 0.00 0.00 81 1019.0
20260509163317 55 0.0 1.0 0.00 0.00 0.00 82 1019.1
20260509162337 55 0.0 2.0 0.00 0.00 0.00 83 1019.2
20260509161317 54 0.0 1.0 0.00 0.00 0.00 84 1019.3
20260509160316 54 23 2.0 3.0 0.00 0.00 0.00 85 1019.3
20260509155316 53 0.0 1.0 0.00 0.00 0.00 85 1019.3
20260509154316 53 0.0 0.0 0.00 0.00 0.00 87 1019.3
20260509153316 53 0 1.0 2.0 0.00 0.00 0.00 87 1019.6
20260509152316 53 0.0 0.0 0.00 0.00 0.00 89 1019.5
20260509151316 52 0.0 0.0 0.00 0.00 0.00 91 1019.5
20260509150317 51 0.0 0.0 0.00 0.00 0.00 94 1019.6
20260509145317 50 0.0 0.0 0.00 0.00 0.00 93 1019.5
20260509144316 49 0.0 0.0 0.00 0.00 0.00 94 1019.5
20260509143316 48 0.0 0.0 0.00 0.00 0.00 94 1019.7
20260509142316 47 0.0 0.0 0.00 0.00 0.00 94 1019.6
20260509141317 47 0.0 0.0 0.00 0.00 0.00 94 1019.8
20260509140316 46 0.0 0.0 0.00 0.00 0.00 93 1019.7
20260509135316 46 0.0 0.0 0.00 0.00 0.00 93 1019.6
20260509134316 46 0.0 0.0 0.00 0.00 0.00 93 1019.7
20260509133317 46 0.0 0.0 0.00 0.00 0.00 93 1019.7
20260509132316 46 0.0 0.0 0.00 0.00 0.00 93 1019.5
20260509131316 46 0.0 0.0 0.00 0.00 0.00 93 1019.7
20260509130317 46 0.0 0.0 0.00 0.00 0.00 93 1019.9
20260509125316 46 0.0 0.0 0.00 0.00 0.00 92 1020.0
20260509124316 46 0.0 0.0 0.00 0.00 0.00 92 1020.0
20260509123317 47 0.0 0.0 0.00 0.00 0.00 92 1019.9
20260509122316 47 0.0 0.0 0.00 0.00 0.00 93 1019.8
20260509121316 47 0.0 0.0 0.00 0.00 0.00 92 1019.8
20260509120316 47 0.0 0.0 0.00 0.00 0.00 92 1020.0
20260509115316 47 0.0 0.0 0.00 0.00 0.00 91 1020.1
20260509114337 47 0.0 0.0 0.00 0.00 0.00 91 1020.0
20260509113316 48 0.0 0.0 0.00 0.00 0.00 92 1020.0
20260509112356 48 0.0 0.0 0.00 0.00 0.00 92 1020.0
20260509111316 48 0.0 0.0 0.00 0.00 0.00 91 1020.1
20260509110316 48 0.0 0.0 0.00 0.00 0.00 90 1020.2
20260509105316 48 0.0 0.0 0.00 0.00 0.00 91 1020.3
20260509104336 49 0.0 0.0 0.00 0.00 0.00 91 1020.3
20260509103356 49 0.0 0.0 0.00 0.00 0.00 91 1020.3
20260509102317 49 0.0 0.0 0.00 0.00 0.00 90 1020.4
20260509101316 49 0.0 0.0 0.00 0.00 0.00 90 1020.4
20260509100316 49 0.0 0.0 0.00 0.00 0.00 89 1020.5
20260509095316 50 0.0 0.0 0.00 0.00 0.00 90 1020.5
20260509094316 50 0.0 0.0 0.00 0.00 0.00 89 1020.4
20260509093316 50 0.0 0.0 0.00 0.00 0.00 89 1020.3
20260509092316 50 0.0 0.0 0.00 0.00 0.00 88 1020.5
20260509091316 50 0.0 0.0 0.00 0.00 0.00 88 1020.6
20260509090316 51 0.0 0.0 0.00 0.00 0.00 88 1020.6
20260509085316 51 0.0 0.0 0.00 0.00 0.00 87 1020.6
20260509084316 51 0.0 0.0 0.00 0.00 0.00 87 1020.7
20260509083316 52 0.0 0.0 0.00 0.00 0.00 87 1020.8
20260509082316 52 0.0 0.0 0.00 0.00 0.00 86 1020.9
20260509081316 53 0.0 0.0 0.00 0.00 0.00 85 1020.8
20260509080316 53 0.0 0.0 0.00 0.00 0.00 85 1020.8
20260509075318 53 0.0 0.0 0.00 0.00 0.00 85 1020.8
20260509074318 53 0.0 0.0 0.00 0.00 0.00 84 1020.8
20260509073317 54 0.0 0.0 0.00 0.00 0.00 84 1020.9
20260509072318 54 0.0 0.0 0.00 0.00 0.00 83 1021.1
20260509071318 54 0.0 0.0 0.00 0.00 0.00 83 1021.2
20260509070358 55 0.0 0.0 0.00 0.00 0.00 82 1021.2
20260509065317 55 0.0 0.0 0.00 0.00 0.00 82 1021.2
20260509064317 55 0.0 0.0 0.00 0.00 0.00 82 1021.2
20260509063317 55 0.0 0.0 0.00 0.00 0.00 82 1021.2
20260509062338 55 0.0 0.0 0.00 0.00 0.00 82 1021.2
20260509061317 55 0.0 0.0 0.00 0.00 0.00 81 1021.1
20260509060318 55 0.0 0.0 0.00 0.00 0.00 81 1021.0
20260509055317 56 0.0 0.0 0.00 0.00 0.00 81 1021.1
20260509054317 56 0.0 0.0 0.00 0.00 0.00 80 1021.1
20260509053317 57 0.0 0.0 0.00 0.00 0.00 78 1021.1
20260509052337 57 0.0 0.0 0.00 0.00 0.00 78 1020.9
20260509051317 57 0.0 0.0 0.00 0.00 0.00 77 1020.9
20260509050317 58 0.0 0.0 0.00 0.00 0.00 76 1020.8
20260509045337 58 0.0 0.0 0.00 0.00 0.00 75 1020.8
20260509044317 59 0.0 0.0 0.00 0.00 0.00 74 1020.7
20260509043317 60 0.0 0.0 0.00 0.00 0.00 73 1020.6
20260509042317 60 0.0 0.0 0.00 0.00 0.00 71 1020.6
20260509041317 61 0.0 0.0 0.00 0.00 0.00 71 1020.5
20260509040317 61 0.0 0.0 0.00 0.00 0.00 69 1020.4
20260509035317 62 0.0 0.0 0.00 0.00 0.00 69 1020.3
20260509034317 62 0.0 0.0 0.00 0.00 0.00 67 1020.2
20260509033317 63 0.0 0.0 0.00 0.00 0.00 64 1020.2
20260509032317 64 0.0 0.0 0.00 0.00 0.00 63 1020.1
20260509031317 65 0.0 0.0 0.00 0.00 0.00 61 1020.0
20260509030317 65 0.0 0.0 0.00 0.00 0.00 60 1020.0
20260509025317 65 0.0 0.0 0.00 0.00 0.00 60 1020.1
20260509024317 66 0.0 0.0 0.00 0.00 0.00 59 1020.0
20260509023317 66 0.0 0.0 0.00 0.00 0.00 59 1019.9
20260509022317 66 0.0 0.0 0.00 0.00 0.00 58 1019.9
20260509021317 66 0.0 0.0 0.00 0.00 0.00 57 1019.9
20260509020317 67 0.0 0.0 0.00 0.00 0.00 56 1019.9
20260509015317 67 0.0 0.0 0.00 0.00 0.00 55 1019.9
20260509014317 67 0.0 0.0 0.00 0.00 0.00 55 1019.8
20260509013317 68 0.0 0.0 0.00 0.00 0.00 54 1019.8
20260509012337 69 0.0 0.0 0.00 0.00 0.00 53 1019.8
20260509011317 69 0.0 0.0 0.00 0.00 0.00 52 1019.8
20260509010317 69 0.0 0.0 0.00 0.00 0.00 52 1019.9
20260509005317 69 0.0 0.0 0.00 0.00 0.00 52 1019.9
20260509004317 68 0.0 0.0 0.00 0.00 0.00 52 1020.0
20260509003316 69 0.0 0.0 0.00 0.00 0.00 50 1020.1
20260509002317 69 0.0 0.0 0.00 0.00 0.00 50 1020.1